Noatak, AK

10:18 PM AKST on December 16, 2017 (GMT -0900)
Noatak

Weather History for PAWN - April, 2014

Change the Weather History Date:

Monday, April 21, 2014

  Actual Average Record
Temperature  
Mean Temperature 32 °F -  
Max Temperature 39 °F 26 °F 48 °F (2016)
Min Temperature 24 °F 11 °F -11 °F (2006)
Degree Days  
Heating Degree Days 34    
Moisture  
Dew Point 22 °F    
Average Humidity 65    
Maximum Humidity 87    
Minimum Humidity 52    
Precipitation  
Precipitation 0.00 in - - ()
Sea Level Pressure  
Sea Level Pressure 29.91 in    
Wind  
Wind Speed 7 mph (NNE)    
Max Wind Speed 12 mph    
Max Gust Speed -    
Visibility 10 miles    
Events      
Averages and records for this station are not official NWS values.
T = Trace of Precipitation, MM = Missing Value Source: NWS Daily Summary

Daily Weather History Graph

Daily Weather History Graph

Search for Another Location

Airport or City:

Trip Planner

Search our weather history database for the weather conditions in past years. The results will help you decide how hot, cold, wet, or windy it might be!

Date:

Astronomy

Apr. 21, 2014 Rise Set
Actual Time 6:36 AM AKDT 11:07 PM AKDT
Civil Twilight 5:21 AM AKDT 12:24 AM AKDT
Nautical Twilight 3:23 AM AKDT 2:18 AM AKDT
Astronomical Twilight Sun does not rise Sun does not rise
Moon 5:27 AM AKDT (4/21) 11:39 AM AKDT (4/21)
Length of Visible Light 19h 03m
Length of Day
16h 30m
Waning Gibbous, 56% of the Moon is Illuminated
Apr 21
Waning Gibbous
Apr 21
Last Quarter
Apr 28
New
May 6
First Quarter
May 14
Full

Hourly Weather History & Observations

Time (AKDT) Temp. Windchill Dew Point Humidity Pressure Visibility Wind Dir Wind Speed Gust Speed Precip Events Conditions
12:16 AM 28.4 °F 22.2 °F 19.4 °F 69% 29.93 in 10.0 mi NNE 5.8 mph - N/A   Clear
12:36 AM 28.4 °F 22.2 °F 19.4 °F 69% 29.93 in 10.0 mi NNE 5.8 mph - N/A   Clear
12:56 AM 28.4 °F 21.2 °F 19.4 °F 69% 29.93 in 10.0 mi North 6.9 mph - N/A   Clear
1:16 AM 28.4 °F 22.2 °F 17.6 °F 64% 29.94 in 10.0 mi NNE 5.8 mph - N/A   Clear
1:36 AM 28.4 °F 23.3 °F 17.6 °F 64% 29.94 in 10.0 mi NNE 4.6 mph - N/A   Clear
1:56 AM 28.4 °F 22.2 °F 17.6 °F 64% 29.94 in 10.0 mi NNE 5.8 mph - N/A   Clear
2:16 AM 28.4 °F 21.2 °F 17.6 °F 64% 29.95 in 10.0 mi NNE 6.9 mph - N/A   Clear
2:36 AM 26.6 °F 19.1 °F 17.6 °F 69% 29.95 in 10.0 mi NNE 6.9 mph - N/A   Clear
2:56 AM 26.6 °F 18.2 °F 17.6 °F 69% 29.95 in 10.0 mi NNE 8.1 mph - N/A   Clear
3:16 AM 26.6 °F 18.2 °F 17.6 °F 69% 29.94 in 10.0 mi North 8.1 mph - N/A   Clear
3:36 AM 26.6 °F 18.2 °F 15.8 °F 64% 29.95 in 10.0 mi North 8.1 mph - N/A   Clear
3:56 AM 26.6 °F 18.2 °F 15.8 °F 64% 29.95 in 10.0 mi North 8.1 mph - N/A   Clear
4:16 AM 26.6 °F 17.5 °F 17.6 °F 69% 29.95 in 10.0 mi North 9.2 mph - N/A   Clear
4:36 AM 26.6 °F 18.2 °F 15.8 °F 64% 29.95 in 10.0 mi North 8.1 mph - N/A   Clear
4:56 AM 26.6 °F 17.5 °F 15.8 °F 64% 29.95 in 10.0 mi North 9.2 mph - N/A   Clear
5:16 AM 24.8 °F 15.3 °F 15.8 °F 69% 29.94 in 10.0 mi North 9.2 mph - N/A   Clear
5:36 AM 24.8 °F 15.3 °F 15.8 °F 69% 29.94 in 10.0 mi North 9.2 mph - N/A   Clear
5:56 AM 24.8 °F 16.1 °F 15.8 °F 69% 29.94 in 10.0 mi NNE 8.1 mph - N/A   Clear
6:16 AM 24.8 °F 16.1 °F 15.8 °F 69% 29.93 in 10.0 mi NNE 8.1 mph - N/A   Clear
6:36 AM 24.8 °F 16.1 °F 15.8 °F 69% 29.93 in 10.0 mi North 8.1 mph - N/A   Clear
6:56 AM 24.8 °F 16.9 °F 15.8 °F 69% 29.93 in 10.0 mi North 6.9 mph - N/A   Clear
7:16 AM 24.8 °F 16.1 °F 15.8 °F 69% 29.93 in 10.0 mi North 8.1 mph - N/A   Clear
7:36 AM 24.8 °F 16.9 °F 15.8 °F 69% 29.93 in 10.0 mi North 6.9 mph - N/A   Clear
7:56 AM 24.8 °F 17.9 °F 15.8 °F 69% 29.93 in 10.0 mi North 5.8 mph - N/A   Clear
8:16 AM 24.8 °F 16.1 °F 15.8 °F 69% 29.93 in 10.0 mi NNE 8.1 mph - N/A   Clear
8:36 AM 24.8 °F 15.3 °F 15.8 °F 69% 29.93 in 10.0 mi NNE 9.2 mph - N/A   Clear
8:56 AM 24.8 °F 14.6 °F 15.8 °F 69% 29.92 in 10.0 mi NNE 10.4 mph - N/A   Clear
9:16 AM 26.6 °F 17.5 °F 15.8 °F 64% 29.92 in 10.0 mi NNE 9.2 mph - N/A   Clear
9:36 AM 26.6 °F 18.2 °F 15.8 °F 64% 29.92 in 10.0 mi NNE 8.1 mph - N/A   Clear
9:56 AM 26.6 °F 19.1 °F 15.8 °F 64% 29.92 in 10.0 mi NNE 6.9 mph - N/A   Clear
10:16 AM 28.4 °F 21.2 °F 15.8 °F 59% 29.92 in 10.0 mi NNE 6.9 mph - N/A   Clear
10:36 AM 28.4 °F 21.2 °F 17.6 °F 64% 29.92 in 10.0 mi NNE 6.9 mph - N/A   Clear
10:56 AM 30.2 °F 24.3 °F 17.6 °F 60% 29.91 in 10.0 mi NNE 5.8 mph - N/A   Clear
11:16 AM 30.2 °F 23.4 °F 17.6 °F 60% 29.91 in 10.0 mi NNE 6.9 mph - N/A   Clear
11:36 AM 32.0 °F 25.6 °F 17.6 °F 55% 29.91 in 10.0 mi NNE 6.9 mph - N/A   Clear
11:56 AM 33.8 °F 27.7 °F 19.4 °F 56% 29.91 in 10.0 mi North 6.9 mph - N/A   Clear
12:16 PM 33.8 °F 27.0 °F 21.2 °F 60% 29.91 in 10.0 mi North 8.1 mph - N/A   Clear
12:36 PM 35.6 °F 29.2 °F 21.2 °F 56% 29.91 in 10.0 mi NNE 8.1 mph - N/A   Clear
12:56 PM 35.6 °F 28.6 °F 21.2 °F 56% 29.91 in 10.0 mi NNE 9.2 mph - N/A   Clear
1:16 PM 37.4 °F 30.8 °F 21.2 °F 52% 29.90 in 10.0 mi NNE 9.2 mph - N/A   Clear
1:36 PM 35.6 °F 27.5 °F 21.2 °F 56% 29.90 in 10.0 mi NE 11.5 mph - N/A   Clear
1:56 PM 35.6 °F 28.0 °F 23.0 °F 60% 29.90 in 10.0 mi NE 10.4 mph - N/A   Clear
2:16 PM 37.4 °F 30.3 °F 23.0 °F 56% 29.90 in 10.0 mi NNE 10.4 mph - N/A   Clear
2:36 PM 37.4 °F 30.3 °F 24.8 °F 60% 29.90 in 10.0 mi NE 10.4 mph - N/A   Clear
2:56 PM 37.4 °F 30.3 °F 24.8 °F 60% 29.89 in 10.0 mi NE 10.4 mph - N/A   Clear
3:16 PM 39.2 °F 33.0 °F 24.8 °F 56% 29.89 in 10.0 mi NE 9.2 mph - N/A   Clear
3:36 PM 39.2 °F 33.0 °F 24.8 °F 56% 29.89 in 10.0 mi NNE 9.2 mph - N/A   Clear
3:56 PM 39.2 °F 32.5 °F 24.8 °F 56% 29.88 in 10.0 mi NNE 10.4 mph - N/A   Clear
4:16 PM 39.2 °F 34.2 °F 24.8 °F 56% 29.88 in 10.0 mi NNE 6.9 mph - N/A   Clear
4:36 PM 39.2 °F 34.2 °F 24.8 °F 56% 29.88 in 10.0 mi ENE 6.9 mph - N/A   Partly Cloudy
4:56 PM 37.4 °F 31.4 °F 24.8 °F 60% 29.88 in 10.0 mi NE 8.1 mph - N/A   Partly Cloudy
5:16 PM 37.4 °F 30.8 °F 26.6 °F 65% 29.88 in 10.0 mi NE 9.2 mph - N/A   Mostly Cloudy
5:36 PM 39.2 °F 34.2 °F 26.6 °F 61% 29.88 in 10.0 mi North 6.9 mph - N/A   Mostly Cloudy
5:56 PM 39.2 °F 34.2 °F 26.6 °F 61% 29.88 in 10.0 mi NNE 6.9 mph - N/A   Overcast
6:16 PM 39.2 °F 34.2 °F 26.6 °F 61% 29.88 in 10.0 mi NNE 6.9 mph - N/A   Overcast
6:36 PM 39.2 °F 35.0 °F 26.6 °F 61% 29.88 in 10.0 mi NE 5.8 mph - N/A   Overcast
6:56 PM 39.2 °F 35.0 °F 26.6 °F 61% 29.87 in 10.0 mi NNE 5.8 mph - N/A   Overcast
7:16 PM 39.2 °F 35.0 °F 26.6 °F 61% 29.87 in 10.0 mi NNE 5.8 mph - N/A   Overcast
7:36 PM 39.2 °F 34.2 °F 26.6 °F 61% 29.87 in 10.0 mi ENE 6.9 mph - N/A   Overcast
7:56 PM 39.2 °F 35.0 °F 26.6 °F 61% 29.87 in 10.0 mi NNE 5.8 mph - N/A   Overcast
8:16 PM 39.2 °F 33.0 °F 26.6 °F 61% 29.87 in 10.0 mi NE 9.2 mph - N/A   Overcast
8:36 PM 39.2 °F 34.2 °F 28.4 °F 65% 29.87 in 10.0 mi NNE 6.9 mph - N/A   Overcast
8:56 PM 39.2 °F 34.2 °F 26.6 °F 61% 29.87 in 10.0 mi NE 6.9 mph - N/A   Overcast
9:16 PM 39.2 °F 33.6 °F 28.4 °F 65% 29.88 in 10.0 mi ENE 8.1 mph - N/A   Overcast
9:36 PM 37.4 °F 32.8 °F 28.4 °F 70% 29.88 in 10.0 mi ENE 5.8 mph - N/A   Overcast
9:56 PM 39.2 °F 35.0 °F 28.4 °F 65% 29.88 in 10.0 mi East 5.8 mph - N/A   Overcast
10:16 PM 37.4 °F 32.8 °F 32.0 °F 81% 29.88 in 10.0 mi East 5.8 mph - N/A   Overcast
10:36 PM 37.4 °F 32.1 °F 32.0 °F 81% 29.88 in 9.0 mi NE 6.9 mph - N/A   Overcast
10:56 PM 37.4 °F 32.8 °F 32.0 °F 81% 29.88 in 10.0 mi NE 5.8 mph - N/A   Overcast
11:16 PM 35.6 °F 32.8 °F 32.0 °F 87% 29.89 in 10.0 mi North 3.5 mph - N/A   Overcast
11:36 PM 33.8 °F 30.8 °F 30.2 °F 87% 29.89 in 10.0 mi NNW 3.5 mph - N/A   Overcast
11:56 PM 33.8 °F 28.6 °F 30.2 °F 87% 29.89 in 10.0 mi North 5.8 mph - N/A   Overcast